This is the latest recevied weather packets stored in our database for station/object KF6YUA. If no packets are shown the sender has not sent any weather packets the latest 10 day(s).
| Time | Temp. | Humidity | Pressure | Rain* | Wind** | Luminosity | Snow |
|---|---|---|---|---|---|---|---|
| 1778162906 | 10.56° C | 99% | 1021.3 hPa | 0 mm | - | 11 W/m² | - |
| 1778162602 | 10.56° C | 99% | 1021.4 hPa | 0.51 mm | - | 10 W/m² | - |
| 1778162301 | 10.56° C | 99% | 1021.1 hPa | 0.51 mm | - | 9 W/m² | - |
| 1778161997 | 10.56° C | 99% | 1021.1 hPa | 0 mm | - | 7 W/m² | - |
| 1778161694 | 10.56° C | 99% | 1020.9 hPa | 0 mm | - | 5 W/m² | - |
| 1778161390 | 10.56° C | 99% | 1021.1 hPa | 0 mm | - | 2 W/m² | - |
| 1778161086 | 10.56° C | 99% | 1021 hPa | 0 mm | - | 1 W/m² | - |
| 1778160782 | 10.56° C | 99% | 1020.8 hPa | 0 mm | - | 0 W/m² | - |
| 1778160481 | 10.56° C | 99% | 1020.9 hPa | 0 mm | - | 5 W/m² | - |
| 1778160177 | 10.56° C | 99% | 1021.1 hPa | 0 mm | - | 0 W/m² | - |
| 1778159874 | 10.56° C | 99% | 1020.9 hPa | 0 mm | - | 0 W/m² | - |
| 1778159571 | 10.56° C | 99% | 1020.6 hPa | 0 mm | - | 0 W/m² | - |
| 1778159267 | 10.56° C | 99% | 1020.7 hPa | 0 mm | - | 0 W/m² | - |
| 1778158965 | 10.56° C | 99% | 1020.6 hPa | 0 mm | - | 0 W/m² | - |
| 1778158664 | 10.56° C | 99% | 1020.5 hPa | 0.51 mm | - | 0 W/m² | - |
| 1778158361 | 10.56° C | 99% | 1020.5 hPa | 0.51 mm | - | 0 W/m² | - |
| 1778158058 | 10.56° C | 99% | 1020.7 hPa | 0 mm | - | 0 W/m² | - |
| 1778157754 | 10.56° C | 99% | 1020.8 hPa | 0 mm | - | 0 W/m² | - |
| 1778157453 | 10.56° C | 99% | 1020.8 hPa | 0 mm | - | 0 W/m² | - |
| 1778157150 | 10.56° C | 99% | 1020.6 hPa | 0 mm | - | 0 W/m² | - |
| 1778156845 | 10.56° C | 99% | 1020.7 hPa | 0 mm | - | 0 W/m² | - |
| 1778156541 | 10.56° C | 99% | 1020.6 hPa | 0 mm | - | 0 W/m² | - |
| 1778156237 | 10.56° C | 99% | 1020.7 hPa | 0 mm | - | 0 W/m² | - |
| 1778155933 | 10.56° C | 99% | 1020.5 hPa | 0 mm | - | 0 W/m² | - |
| 1778155629 | 10.56° C | 99% | 1020.8 hPa | 0 mm | - | 0 W/m² | - |
* Rain latest hour (hover to see other rain measurements)
** Current wind speed in m/s (hover to see current wind gust speed)